Regional Weather Roundup
Issued by NWS New Orleans/Baton Rouge, LA

Home | Current Version | Previous Version | Text Only | Print | Product List | Glossary On
Versions: 1 2 3 4 5 6 7 8 9 10 11 12 13 14 15 16 17 18 19 20 21 22 23 24 25 26 27 28 29 30 31 32 33 34 35 36 37 38 39 40 41 42 43 44 45 46 47 48 49 50
433
ASUS44 KLIX 311210
RWRLIX
NEW ORLEANS REGIONAL WEATHER ROUNDUP
NATIONAL WEATHER SERVICE NEW ORLEANS LA
700 AM CDT THU JUL 31 2014

NOTE: "FAIR" INDICATES FEW OR NO CLOUDS BELOW 12,000 FEET WITH NO
      SIGNIFICANT WEATHER AND/OR OBSTRUCTIONS TO VISIBILITY.
      SKY/WX - SKY CONDITION AND SIGNIFICANT WEATHER.
      TMP - AIR TEMPERATURE.     DP    - DEWPOINT TEMPERATURE.
      RH  - RELATIVE HUMIDITY.   PRES  - PRESSURE.
      HI  - HEAT INDEX.          WCI   - WIND CHILL INDEX.

*  THESE STATIONS ARE NOT NWS OR FAA STATIONS AND ARE NOT UNDER
   NWS QUALITY CONTROL.

LAZ038-040-048-061>063-065>067-069-311300-
SOUTHEAST LOUISIANA

CITY           SKY/WX    TMP DP  RH WIND       PRES   REMARKS
N.O. AUDUBON     N/A     77  67  72 MISG        N/A
6HR MIN TEMP:  75; 6HR MAX TEMP:  79;

N.O. INTL ARPT MOCLDY    73  65  75 CALM      30.01R HAZE
6HR MIN TEMP:  70; 6HR MAX TEMP:  76;

N.O. LAKEFRONT CLEAR     79  69  71 E9        30.02R
6HR MIN TEMP:  76; 6HR MAX TEMP:  81;

N.O. DOWNTOWN*   N/A     79  63  57 CALM      30.02R
6HR MIN TEMP:  79; 6HR MAX TEMP:  81;

SLIDELL        PTCLDY    66  63  90 CALM      30.02R
6HR MIN TEMP:  65; 6HR MAX TEMP:  68;

BATON ROUGE    CLOUDY    70  64  81 NE3       30.03R
6HR MIN TEMP:  69; 6HR MAX TEMP:  71;

BOOTHVILLE     PTCLDY    77  66  68 CALM      30.02R
6HR MIN TEMP:  74; 6HR MAX TEMP:  77;

BELLE CHASSE   MOCLDY    71  67  87 CALM      30.01R
6HR MIN TEMP:  68; 6HR MAX TEMP:  71;

BOGALUSA*      PTSUNNY   69  64  84 CALM      30.05R
6HR MIN TEMP:  67; 6HR MAX TEMP:  69;

GALLIANO*      NOT AVBL
NEW ROADS*     PTSUNNY   70  66  87 CALM      30.03R
6HR MIN TEMP:  69; 6HR MAX TEMP:  72;

GONZALES*        N/A     67  67 100 CALM      30.01S
6HR MIN TEMP:  66; 6HR MAX TEMP:  70;

HAMMOND*       MOCLDY    70  61  73 CALM      30.05R
HOUMA*         CLOUDY    73  66  78 CALM      30.01R
PORT FOURCHON* PTSUNNY   81  64  57 CALM      30.02R

$$

MSZ070-080>082-311300-
SOUTHERN MISSISSIPPI

CITY           SKY/WX    TMP DP  RH WIND       PRES   REMARKS
MCCOMB         CLOUDY    71  59  65 CALM      30.06R
6HR MIN TEMP:  68; 6HR MAX TEMP:  72;

GULFPORT       PTCLDY    73  61  65 N5        30.02R
6HR MIN TEMP:  71; 6HR MAX TEMP:  74;

BILOXI         CLEAR     69  61  77 NE7       30.02S
6HR MIN TEMP:  68; 6HR MAX TEMP:  72;

PASCAGOULA     CLEAR     64  62  93 CALM      30.02R
6HR MIN TEMP:  62; 6HR MAX TEMP:  64;

STENNIS ARPT*  CLEAR    N/A N/A N/A CALM      30.03

$$

COASTAL OBSERVATIONS
LAKE AND NEARSHORE STATIONS

STATION/POSITION TIME  TEMP    WIND        PRES    WAVE
                       AIR SEA DIR/SP/G            HT/PER
                 (UTC) (F)     (DEG/KT/KT) (MB)    (FT/S)
PASCAGOULA       1200   70      30/  5/  6 1015.8
WAVELAND YACHT   1200   73      60/ 10/ 12 1015.8
GRAND ISLE       1200   81 86  100/  3/  5 1016.6
SOUTHWEST PASS   1200   80 85   70/  6/  7 1016.2
NEW CANAL        1200   77 82     CALM     1016.8
SHELL BEACH      1200   78 80  210/  2/  3 1016.1

OFFSHORE STATIONS

STATION/POSITION TIME  TEMP    WIND        PRES    WAVE
                       AIR SEA DIR/SP/G            HT/PER
                 (UTC) (F)     (DEG/KT/KT) (MB)    (FT/S)
64 S DAUPHIN ISL 1133   82 85   10/  4/  6 1015.7

$$




USA.gov is the U.S. government's official web portal to all federal, state and local government web resources and services.